Shelton, WA

3:48 PM PDT on June 23, 2017 (GMT -0700)
Sanderson

Weather History for KSHN - May, 2014

Change the Weather History Date:

Monday, May 5, 2014

  Actual Average Record
Temperature  
Mean Temperature 52 °F -  
Max Temperature 57 °F 65 °F 88 °F (1953)
Min Temperature 48 °F 43 °F 31 °F (1949)
Degree Days  
Heating Degree Days 12    
Growing Degree Days 2 (Base 50)    
Moisture  
Dew Point 48 °F    
Average Humidity 86    
Maximum Humidity 93    
Minimum Humidity 74    
Precipitation  
Precipitation 0.57 in - - ()
Sea Level Pressure  
Sea Level Pressure 29.95 in    
Wind  
Wind Speed 9 mph (SW)    
Max Wind Speed 17 mph    
Max Gust Speed 22 mph    
Visibility 9 miles    
Events Rain    
Averages and records for this station are not official NWS values.
T = Trace of Precipitation, MM = Missing Value Source: NWS Daily Summary

Daily Weather History Graph

Daily Weather History Graph

Search for Another Location

Airport or City:

Trip Planner

Search our weather history database for the weather conditions in past years. The results will help you decide how hot, cold, wet, or windy it might be!

Date:

Astronomy

May. 05, 2014 Rise Set
Actual Time 5:50 AM PDT 8:29 PM PDT
Civil Twilight 5:15 AM PDT 9:04 PM PDT
Nautical Twilight 4:31 AM PDT 9:48 PM PDT
Astronomical Twilight 3:40 AM PDT 10:39 PM PDT
Moon 11:16 AM PDT (5/5) 1:15 AM PDT (5/5)
Length of Visible Light 15h 48m
Length of Day
14h 39m
Waxing Crescent, 37% of the Moon is Illuminated
May 5
Waxing Crescent
May 6
First Quarter
May 14
Full
May 21
Last Quarter
May 28
New

Hourly Weather History & Observations

Time (PDT) Temp. Dew Point Humidity Pressure Visibility Wind Dir Wind Speed Gust Speed Precip Events Conditions
12:07 AM 50.0 °F 46.9 °F 89% 29.85 in 6.0 mi SSW 12.7 mph - 0.01 in Rain Light Rain
12:53 AM 50.0 °F 46.9 °F 89% 29.86 in 8.0 mi SSW 10.4 mph - 0.05 in Rain Light Rain
1:53 AM 48.9 °F 46.9 °F 93% 29.88 in 7.0 mi SSW 6.9 mph - 0.14 in Rain Rain
2:53 AM 48.9 °F 46.9 °F 93% 29.88 in 10.0 mi South 8.1 mph - 0.04 in Rain Light Rain
3:28 AM 48.9 °F 46.9 °F 93% 29.88 in 10.0 mi SSW 6.9 mph - 0.00 in Rain Light Rain
3:39 AM 48.9 °F 46.9 °F 93% 29.88 in 7.0 mi SSW 6.9 mph - 0.02 in Rain Light Rain
3:53 AM 48.9 °F 46.9 °F 93% 29.89 in 5.0 mi SSW 6.9 mph - 0.03 in Rain Rain
4:53 AM 48.9 °F 46.9 °F 93% 29.90 in 7.0 mi SSE 4.6 mph - 0.13 in Rain Light Rain
5:15 AM 48.9 °F 46.9 °F 93% 29.89 in 10.0 mi South 4.6 mph - 0.01 in Rain Light Rain
5:53 AM 48.9 °F 46.9 °F 93% 29.91 in 10.0 mi SSW 6.9 mph - 0.02 in Rain Light Rain
6:05 AM 48.9 °F 46.9 °F 93% 29.90 in 10.0 mi South 5.8 mph - 0.01 in Rain Light Rain
6:13 AM 48.9 °F 46.9 °F 93% 29.90 in 10.0 mi South 5.8 mph - 0.01 in Rain Light Rain
6:53 AM 48.9 °F 46.9 °F 93% 29.92 in 10.0 mi South 4.6 mph - 0.02 in   Overcast
7:04 AM 48.9 °F 46.9 °F 93% 29.91 in 10.0 mi South 4.6 mph - 0.00 in Rain Light Rain
7:53 AM 50.0 °F 48.0 °F 93% 29.93 in 9.0 mi SSW 5.8 mph - 0.01 in Rain Light Rain
8:19 AM 50.0 °F 48.0 °F 93% 29.93 in 7.0 mi South 6.9 mph - 0.02 in Rain Light Rain
8:53 AM 51.1 °F 48.0 °F 89% 29.94 in 10.0 mi South 5.8 mph - 0.03 in   Overcast
9:41 AM 52.0 °F 48.9 °F 89% 29.95 in 8.0 mi SW 8.1 mph - 0.01 in Rain Light Rain
9:46 AM 52.0 °F 48.0 °F 86% 29.95 in 8.0 mi SSW 8.1 mph - 0.02 in Rain Light Rain
9:53 AM 52.0 °F 48.9 °F 89% 29.96 in 10.0 mi SSW 8.1 mph - 0.02 in Rain Light Rain
10:13 AM 51.1 °F 48.0 °F 89% 29.96 in 6.0 mi SSW 8.1 mph - 0.01 in Rain Light Rain
10:53 AM 53.6 °F 50.0 °F 88% 29.96 in 10.0 mi SSW 12.7 mph - N/A   Overcast
11:19 AM 55.0 °F 48.9 °F 80% 29.96 in 10.0 mi South 12.7 mph - N/A   Overcast
11:53 AM 55.0 °F 48.0 °F 77% 29.97 in 10.0 mi SSW 11.5 mph - N/A   Overcast
12:39 PM 57.0 °F 50.0 °F 77% 29.96 in 10.0 mi SW 13.8 mph - N/A   Mostly Cloudy
12:53 PM 57.0 °F 48.9 °F 74% 29.97 in 10.0 mi SSW 9.2 mph 17.3 mph N/A   Mostly Cloudy
1:00 PM 55.0 °F 48.0 °F 77% 29.97 in 8.0 mi WSW 17.3 mph 21.9 mph N/A   Mostly Cloudy
1:12 PM 53.1 °F 48.0 °F 83% 29.97 in 6.0 mi SW 10.4 mph - 0.01 in Rain Light Rain
1:53 PM 57.9 °F 51.1 °F 78% 29.98 in 10.0 mi SW 15.0 mph - 0.02 in   Mostly Cloudy
2:53 PM 54.0 °F 48.0 °F 80% 29.98 in 10.0 mi SW 15.0 mph - N/A   Overcast
3:53 PM 54.0 °F 50.0 °F 86% 29.98 in 10.0 mi SW 12.7 mph - 0.00 in Rain Light Rain
4:49 PM 55.4 °F 48.2 °F 77% 29.98 in 10.0 mi WSW 16.1 mph 20.7 mph 0.01 in   Overcast
4:53 PM 55.0 °F 48.9 °F 80% 29.98 in 10.0 mi WSW 17.3 mph - 0.01 in Rain Light Rain
5:07 PM 55.0 °F 48.9 °F 80% 29.98 in 6.0 mi WSW 10.4 mph - 0.01 in Rain Light Rain
5:53 PM 54.0 °F 48.9 °F 83% 29.99 in 8.0 mi West 9.2 mph - 0.04 in Rain Light Rain
6:53 PM 55.0 °F 48.0 °F 77% 29.99 in 10.0 mi West 8.1 mph - 0.01 in   Overcast
7:53 PM 54.0 °F 46.0 °F 75% 30.00 in 10.0 mi WSW 8.1 mph - N/A   Overcast
8:53 PM 51.8 °F 46.4 °F 82% 30.01 in 10.0 mi WSW 10.4 mph - N/A   Overcast
9:53 PM 51.1 °F 46.0 °F 83% 30.03 in 10.0 mi WSW 10.4 mph - N/A   Overcast
10:53 PM 48.9 °F 45.0 °F 86% 30.03 in 10.0 mi WSW 11.5 mph - N/A   Mostly Cloudy
11:53 PM 48.0 °F 44.1 °F 86% 30.03 in 10.0 mi WSW 11.5 mph - N/A   Clear